Saratoga Shively Field Airpor, WY

7:49 PM MDT on April 26, 2018 (GMT -0600)
Shively

Weather History for KSAA - May, 2014

Change the Weather History Date:

Monday, May 12, 2014

  Actual Average Record
Temperature  
Mean Temperature 30 °F -  
Max Temperature 35 °F 61 °F 73 °F (2017)
Min Temperature 26 °F 32 °F 26 °F (2014)
Degree Days  
Heating Degree Days 34    
Moisture  
Dew Point 25 °F    
Average Humidity 80    
Maximum Humidity 100    
Minimum Humidity 56    
Precipitation  
Precipitation 0.00 in - - ()
Sea Level Pressure  
Sea Level Pressure 30.26 in    
Wind  
Wind Speed 11 mph (North)    
Max Wind Speed 17 mph    
Max Gust Speed 24 mph    
Visibility 9 miles    
Events Snow    
Averages and records for this station are not official NWS values.
T = Trace of Precipitation, MM = Missing Value Source: NWS Daily Summary

Daily Weather History Graph

Daily Weather History Graph

Search for Another Location

Airport or City:

Astronomy

May. 12, 2014 Rise Set
Actual Time 5:51 AM MDT 8:16 PM MDT
Civil Twilight 5:20 AM MDT 8:47 PM MDT
Nautical Twilight 4:41 AM MDT 9:26 PM MDT
Astronomical Twilight 3:58 AM MDT 10:10 PM MDT
Moon 6:16 PM MDT (5/12) 4:33 AM MDT (5/12)
Length of Visible Light 15h 27m
Length of Day
14h 25m
Waxing Gibbous, 95% of the Moon is Illuminated
May 12
Waxing Gibbous
May 14
Full
May 21
Last Quarter
May 28
New
Jun 5
First Quarter

Hourly Weather History & Observations

Time (MDT) Temp. Windchill Dew Point Humidity Pressure Visibility Wind Dir Wind Speed Gust Speed Precip Events Conditions
12:15 AM 28.4 °F 18.0 °F 26.6 °F 93% 30.11 in 7.0 mi North 12.7 mph 17.3 mph N/A Snow Light Snow
12:35 AM 28.4 °F 19.1 °F 26.6 °F 93% 30.12 in 5.0 mi North 10.4 mph 17.3 mph N/A Snow Light Snow
12:55 AM 28.4 °F 18.5 °F 26.6 °F 93% 30.12 in 5.0 mi North 11.5 mph 17.3 mph N/A Snow Light Snow
1:15 AM 28.4 °F 19.7 °F 26.6 °F 93% 30.12 in 7.0 mi North 9.2 mph - N/A   Overcast
1:35 AM 28.4 °F 19.7 °F 26.6 °F 93% 30.13 in 7.0 mi North 9.2 mph - N/A Snow Light Snow
1:55 AM 28.4 °F 20.4 °F 26.6 °F 93% 30.13 in 5.0 mi North 8.1 mph - N/A Snow Light Snow
2:15 AM 28.4 °F 19.1 °F 26.6 °F 93% 30.13 in 4.0 mi NNW 10.4 mph - N/A Snow Light Snow
2:35 AM 28.4 °F 19.7 °F 26.6 °F 93% 30.14 in 5.0 mi North 9.2 mph - N/A Snow Light Snow
2:55 AM 28.4 °F 19.1 °F 26.6 °F 93% 30.15 in 4.0 mi North 10.4 mph - N/A Snow Light Snow
3:15 AM 28.4 °F 18.0 °F 26.6 °F 93% 30.15 in 7.0 mi North 12.7 mph 19.6 mph N/A Snow Light Snow
3:35 AM 28.4 °F 19.1 °F 26.6 °F 93% 30.15 in 5.0 mi North 10.4 mph 19.6 mph N/A Snow Light Snow
3:55 AM 28.4 °F 18.5 °F 26.6 °F 93% 30.15 in 7.0 mi North 11.5 mph 17.3 mph N/A   Overcast
4:16 AM 28.4 °F 16.6 °F 26.6 °F 93% 30.16 in 10.0 mi North 16.1 mph 20.7 mph N/A   Overcast
4:35 AM 28.4 °F 19.1 °F 26.6 °F 93% 30.16 in 7.0 mi North 10.4 mph 17.3 mph N/A   Overcast
4:55 AM 26.6 °F 14.7 °F 26.6 °F 100% 30.16 in 10.0 mi North 15.0 mph 20.7 mph N/A   Overcast
5:15 AM 26.6 °F 15.7 °F 24.8 °F 93% 30.17 in 10.0 mi North 12.7 mph 18.4 mph N/A   Overcast
5:35 AM 26.6 °F 16.2 °F 24.8 °F 93% 30.18 in 5.0 mi North 11.5 mph 19.6 mph N/A   Overcast
5:55 AM 26.6 °F 15.2 °F 24.8 °F 93% 30.18 in 5.0 mi North 13.8 mph 19.6 mph N/A   Overcast
6:15 AM 26.6 °F 15.2 °F 24.8 °F 93% 30.19 in 7.0 mi North 13.8 mph 18.4 mph N/A   Overcast
6:35 AM 26.6 °F 15.7 °F 24.8 °F 93% 30.20 in 10.0 mi North 12.7 mph 21.9 mph N/A   Overcast
6:55 AM 26.6 °F 15.7 °F 23.0 °F 86% 30.21 in 10.0 mi North 12.7 mph 20.7 mph N/A   Overcast
7:15 AM 26.6 °F 16.2 °F 23.0 °F 86% 30.22 in 10.0 mi North 11.5 mph 18.4 mph N/A   Overcast
7:35 AM 26.6 °F 15.7 °F 23.0 °F 86% 30.22 in 10.0 mi North 12.7 mph 17.3 mph N/A   Overcast
8:15 AM 28.4 °F 18.5 °F 23.0 °F 80% 30.24 in 10.0 mi NNE 11.5 mph - N/A   Overcast
8:35 AM 28.4 °F 18.0 °F 21.2 °F 74% 30.25 in 10.0 mi NNE 12.7 mph 19.6 mph N/A   Overcast
8:55 AM 28.4 °F 18.0 °F 23.0 °F 80% 30.26 in 10.0 mi NNE 12.7 mph 18.4 mph N/A   Overcast
9:15 AM 30.2 °F 21.3 °F 23.0 °F 75% 30.26 in 10.0 mi NNE 10.4 mph 16.1 mph N/A   Overcast
9:35 AM 30.2 °F 21.3 °F 23.0 °F 75% 30.27 in 10.0 mi NNE 10.4 mph - N/A   Overcast
9:55 AM 32.0 °F 24.2 °F 21.2 °F 64% 30.27 in 10.0 mi NNE 9.2 mph - N/A   Overcast
10:15 AM 32.0 °F 24.2 °F 21.2 °F 64% 30.28 in 10.0 mi NE 9.2 mph - N/A   Overcast
10:35 AM 32.0 °F 23.6 °F 23.0 °F 69% 30.28 in 10.0 mi North 10.4 mph - N/A   Mostly Cloudy
10:55 AM 32.0 °F 23.6 °F 21.2 °F 64% 30.28 in 10.0 mi NNE 10.4 mph - N/A   Mostly Cloudy
11:15 AM 32.0 °F 24.2 °F 21.2 °F 64% 30.28 in 10.0 mi NNE 9.2 mph - N/A   Mostly Cloudy
11:35 AM 32.0 °F 21.6 °F 23.0 °F 69% 30.28 in 10.0 mi NNE 15.0 mph 19.6 mph N/A   Scattered Clouds
11:55 AM 32.0 °F 22.5 °F 23.0 °F 69% 30.29 in 10.0 mi NNE 12.7 mph 18.4 mph N/A   Mostly Cloudy
12:15 PM 33.8 °F 23.9 °F 23.0 °F 65% 30.30 in 10.0 mi NE 15.0 mph 20.7 mph N/A   Mostly Cloudy
12:35 PM 33.8 °F 25.3 °F 23.0 °F 65% 30.30 in 10.0 mi NNE 11.5 mph 21.9 mph N/A   Overcast
12:55 PM 32.0 °F 21.6 °F 24.8 °F 75% 30.30 in 10.0 mi North 15.0 mph 24.2 mph N/A   Overcast
1:15 PM 32.0 °F 20.8 °F 24.8 °F 75% 30.30 in 10.0 mi NNE 17.3 mph - N/A   Overcast
1:35 PM 32.0 °F 22.5 °F 24.8 °F 75% 30.30 in 10.0 mi North 12.7 mph 19.6 mph N/A   Overcast
1:55 PM 33.8 °F 25.3 °F 24.8 °F 70% 30.30 in 10.0 mi NE 11.5 mph - N/A   Overcast
2:15 PM 33.8 °F 25.3 °F 24.8 °F 70% 30.30 in 10.0 mi North 11.5 mph 17.3 mph N/A   Overcast
2:35 PM 33.8 °F 24.8 °F 26.6 °F 75% 30.30 in 10.0 mi North 12.7 mph - N/A   Overcast
2:55 PM 33.8 °F 25.3 °F 26.6 °F 75% 30.30 in 10.0 mi NNE 11.5 mph - N/A   Mostly Cloudy
3:15 PM 35.6 °F 27.1 °F 26.6 °F 70% 30.30 in 10.0 mi NNE 12.7 mph 18.4 mph N/A   Scattered Clouds
3:35 PM 35.6 °F 25.9 °F 26.6 °F 70% 30.30 in 10.0 mi North 16.1 mph 23.0 mph N/A   Mostly Cloudy
3:55 PM 35.6 °F 27.1 °F 26.6 °F 70% 30.30 in 10.0 mi NNE 12.7 mph 18.4 mph N/A   Mostly Cloudy
4:15 PM 35.6 °F 25.9 °F 26.6 °F 70% 30.30 in 10.0 mi North 16.1 mph 21.9 mph N/A   Scattered Clouds
4:35 PM 35.6 °F 26.2 °F 21.2 °F 56% 30.30 in 10.0 mi NNE 15.0 mph 23.0 mph N/A   Clear
4:55 PM 35.6 °F 26.2 °F 23.0 °F 60% 30.31 in 10.0 mi NNE 15.0 mph 24.2 mph N/A   Clear
5:15 PM 33.8 °F 24.3 °F 23.0 °F 65% 30.31 in 10.0 mi NNE 13.8 mph 23.0 mph N/A   Clear
5:35 PM 35.6 °F 26.6 °F 23.0 °F 60% 30.31 in 10.0 mi North 13.8 mph 20.7 mph N/A   Scattered Clouds
5:55 PM 35.6 °F 26.6 °F 23.0 °F 60% 30.31 in 10.0 mi NNE 13.8 mph 19.6 mph N/A   Mostly Cloudy
6:15 PM 35.6 °F 26.6 °F 21.2 °F 56% 30.31 in 10.0 mi NNE 13.8 mph - N/A   Scattered Clouds
6:35 PM 33.8 °F 24.8 °F 23.0 °F 65% 30.32 in 10.0 mi NNE 12.7 mph 20.7 mph N/A   Clear
6:56 PM 32.0 °F 24.2 °F 24.8 °F 75% 30.32 in 10.0 mi North 9.2 mph 16.1 mph N/A   Scattered Clouds
7:15 PM 33.8 °F 26.4 °F 24.8 °F 70% 30.33 in 10.0 mi North 9.2 mph - N/A   Mostly Cloudy
7:35 PM 32.0 °F 24.2 °F 24.8 °F 75% 30.34 in 10.0 mi North 9.2 mph - N/A   Mostly Cloudy
7:55 PM 32.0 °F 25.6 °F 26.6 °F 80% 30.34 in 10.0 mi NNW 6.9 mph - N/A   Scattered Clouds
8:15 PM 32.0 °F 24.8 °F 26.6 °F 80% 30.35 in 10.0 mi North 8.1 mph - N/A   Mostly Cloudy
8:35 PM 32.0 °F 25.6 °F 26.6 °F 80% 30.35 in 10.0 mi North 6.9 mph - N/A   Overcast
8:55 PM 32.0 °F 27.5 °F 26.6 °F 80% 30.36 in 10.0 mi NNW 4.6 mph - N/A   Mostly Cloudy
9:15 PM 30.2 °F 24.3 °F 26.6 °F 86% 30.36 in 10.0 mi NNW 5.8 mph - N/A   Clear
9:35 PM 30.2 °F 24.3 °F 26.6 °F 86% 30.37 in 10.0 mi North 5.8 mph - N/A   Clear
9:55 PM 28.4 °F 23.3 °F 26.6 °F 93% 30.38 in 10.0 mi NNW 4.6 mph - N/A   Clear
10:15 PM 28.4 °F 24.6 °F 26.6 °F 93% 30.39 in 10.0 mi NW 3.5 mph - N/A   Mostly Cloudy
10:35 PM 30.2 °F 26.7 °F 26.6 °F 86% 30.40 in 10.0 mi NNW 3.5 mph - N/A   Overcast
10:55 PM 30.2 °F - 26.6 °F 86% 30.40 in 10.0 mi Calm Calm - N/A   Overcast
11:15 PM 30.2 °F 25.4 °F 26.6 °F 86% 30.40 in 10.0 mi West 4.6 mph - N/A   Overcast
11:35 PM 28.4 °F 22.2 °F 26.6 °F 93% 30.40 in 10.0 mi WSW 5.8 mph - N/A   Mostly Cloudy